H1 CPF 2 NER 2024 11 16 9 321 01 glonass144 H2 2207501 9144 52984 2024 11 16 0 0 0 2024 11 19 23 45 0 900 1 1 0 0 0 1 H9 10 0 60630 0.00000 0 6862545.034 -23769634.924 6229837.347 10 0 60630 900.00000 0 6605151.634 -22843853.214 9253687.698 10 0 60630 1800.00000 0 6394260.046 -21541668.906 12097959.801 10 0 60630 2700.00000 0 6280669.257 -19892437.489 14707568.850 10 0 60630 3600.00000 0 6309087.398 -17937002.927 17032026.599 10 0 60630 4500.00000 0 6516050.635 -15726132.286 19026406.495 10 0 60630 5400.00000 0 6928198.284 -13318554.718 20652198.504 10 0 60630 6300.00000 0 7560975.902 -10778686.532 21878038.564 10 0 60630 7200.00000 0 8417820.127 -8174136.523 22680300.104 10 0 60630 8100.00000 0 9489858.903 -5573094.178 23043537.715 10 0 60630 9000.00000 0 10756139.493 -3041707.716 22960775.747 10 0 60630 9900.00000 0 12184375.005 -641558.899 22433637.244 10 0 60630 10800.00000 0 13732178.995 1572662.651 21472311.288 10 0 60630 11700.00000 0 15348737.733 3555191.207 20095359.465 10 0 60630 12600.00000 0 16976851.849 5270840.308 18329364.782 10 0 60630 13500.00000 0 18555263.755 6696214.556 16208428.965 10 0 60630 14400.00000 0 20021175.347 7820428.679 13773526.616 10 0 60630 15300.00000 0 21312852.242 8645304.639 11071727.329 10 0 60630 16200.00000 0 22372206.730 9185038.957 8155299.280 10 0 60630 17100.00000 0 23147251.983 9465354.198 5080710.180 10 0 60630 18000.00000 0 23594324.671 9522169.965 1907543.768 10 0 60630 18900.00000 0 23679982.285 9399848.913 -1302648.127 10 0 60630 19800.00000 0 23382494.361 9149091.304 -4487536.247 10 0 60630 20700.00000 0 22692863.489 8824566.711 -7585224.311 10 0 60630 21600.00000 0 21615331.279 8482382.972 -10535455.458 10 0 60630 22500.00000 0 20167346.057 8177499.763 -13280790.780 10 0 60630 23400.00000 0 18378991.597 7961196.968 -15767736.206 10 0 60630 24300.00000 0 16291899.063 7878706.021 -17947794.914 10 0 60630 25200.00000 0 13957686.235 7967105.832 -19778423.809 10 0 60630 26100.00000 0 11435988.268 8253573.849 -21223874.425 10 0 60630 27000.00000 0 8792161.703 8754067.865 -22255900.979 10 0 60630 27900.00000 0 6094757.321 9472495.922 -22854320.996 10 0 60630 28800.00000 0 3412867.499 10400410.870 -23007416.893 10 0 60630 29700.00000 0 813458.957 11517243.778 -22712170.187 10 0 60630 30600.00000 0 -1641197.455 12791067.345 -21974323.394 10 0 60630 31500.00000 0 -3895892.409 14179857.763 -20808268.201 10 0 60630 32400.00000 0 -5904540.398 15633202.128 -19236762.053 10 0 60630 33300.00000 0 -7631852.795 17094379.365 -17290478.803 10 0 60630 34200.00000 0 -9054552.348 18502726.576 -15007402.522 10 0 60630 35100.00000 0 -10162079.424 19796190.467 -12432076.807 10 0 60630 36000.00000 0 -10956761.942 20913955.571 -9614724.959 10 0 60630 36900.00000 0 -11453443.851 21799037.680 -6610259.092 10 0 60630 37800.00000 0 -11678590.049 22400732.533 -3477198.543 10 0 60630 38700.00000 0 -11668907.888 22676816.083 -276519.758 10 0 60630 39600.00000 0 -11469545.833 22595403.451 2929538.831 10 0 60630 40500.00000 0 -11131947.571 22136388.465 6078692.693 10 0 60630 41400.00000 0 -10711454.106 21292403.657 9109823.506 10 0 60630 42300.00000 0 -10264756.583 20069261.095 11964163.859 10 0 60630 43200.00000 0 -9847308.329 18485856.426 14586431.374 10 0 60630 44100.00000 0 -9510805.651 16573541.001 16925890.665 10 0 60630 45000.00000 0 -9300843.444 14374989.100 18937323.380 10 0 60630 45900.00000 0 -9254843.756 11942608.000 20581888.742 10 0 60630 46800.00000 0 -9400343.512 9336557.185 21827859.406 10 0 60630 47700.00000 0 -9753712.388 6622458.694 22651219.933 10 0 60630 48600.00000 0 -10319353.687 3868892.836 23036117.868 10 0 60630 49500.00000 0 -11089421.073 1144781.739 22975160.030 10 0 60630 50400.00000 0 -12044062.767 -1483232.465 22469549.306 10 0 60630 51300.00000 0 -13152183.177 -3953308.165 21529059.891 10 0 60630 52200.00000 0 -14372690.823 -6210721.127 20171851.550 10 0 60630 53100.00000 0 -15656181.433 -8209883.533 18424126.096 10 0 60630 54000.00000 0 -16946987.266 -9915983.163 16319631.897 10 0 60630 54900.00000 0 -18185508.430 -11306175.984 13899024.776 10 0 60630 55800.00000 0 -19310730.078 -12370283.457 11209096.258 10 0 60630 56700.00000 0 -20262821.263 -13110966.014 8301882.589 10 0 60630 57600.00000 0 -20985707.281 -13543365.605 5233670.306 10 0 60630 58500.00000 0 -21429507.841 -13694232.122 2063916.405 10 0 60630 59400.00000 0 -21552738.337 -13600569.999 -1145896.910 10 0 60630 60300.00000 0 -21324180.799 -13307861.513 -4333451.292 10 0 60630 61200.00000 0 -20724344.399 -12867941.255 -7436802.182 10 0 60630 62100.00000 0 -19746452.245 -12336611.333 -10395585.952 10 0 60630 63000.00000 0 -18396910.821 -11771098.090 -13152200.274 10 0 60630 63900.00000 0 -16695240.100 -11227458.294 -15652934.008 10 0 60630 64800.00000 0 -14673465.127 -10758045.220 -17849023.679 10 0 60630 65700.00000 0 -12374992.620 -10409142.781 -19697615.070 10 0 60630 66600.00000 0 -9853018.091 -10218869.021 -21162610.141 10 0 60630 67500.00000 0 -7168528.963 -10215438.915 -22215381.940 10 0 60630 68400.00000 0 -4387986.409 -10415861.278 -22835342.752 10 0 60630 69300.00000 0 -1580782.374 -10825126.082 -23010353.729 10 0 60630 70200.00000 0 1183422.104 -11435917.599 -22736967.518 10 0 60630 71100.00000 0 3837366.114 -12228866.299 -22020498.740 10 0 60630 72000.00000 0 6318753.993 -13173329.389 -20874920.739 10 0 60630 72900.00000 0 8572609.204 -14228667.231 -19322590.530 10 0 60630 73800.00000 0 10553318.741 -15345961.586 -17393807.426 10 0 60630 74700.00000 0 12226282.963 -16470102.691 -15126214.268 10 0 60630 75600.00000 0 13569102.687 -17542156.342 -12564053.453 10 0 60630 76500.00000 0 14572254.998 -18501910.149 -9757292.979 10 0 60630 77400.00000 0 15239231.133 -19290490.506 -6760640.463 10 0 60630 78300.00000 0 15586132.693 -19852938.869 -3632465.440 10 0 60630 79200.00000 0 15640745.486 -20140637.885 -433651.985 10 0 60630 80100.00000 0 15441132.451 -20113484.457 2773594.783 10 0 60630 81000.00000 0 15033807.340 -19741717.972 5926964.183 10 0 60630 81900.00000 0 14471568.328 -19007326.763 8965253.005 10 0 60630 82800.00000 0 13811084.677 -17904974.033 11829552.105 10 0 60630 83700.00000 0 13110339.483 -16442404.958 14464383.481 10 0 60630 84600.00000 0 12426036.936 -14640318.517 16818766.215 10 0 60630 85500.00000 0 11811083.379 -12531710.072 18847191.405 10 0 60631 0.00000 0 11312247.718 -10160712.745 20510488.278 10 0 60631 900.00000 0 10968098.405 -7580984.668 21776567.002 10 0 60631 1800.00000 0 10807303.100 -4853712.080 22621023.235 10 0 60631 2700.00000 0 10847360.231 -2045306.220 23027597.243 10 0 60631 3600.00000 0 11093815.228 775108.623 22988477.741 10 0 60631 4500.00000 0 11539993.156 3538314.607 22504446.586 10 0 60631 5400.00000 0 12167258.620 6177620.606 21584861.953 10 0 60631 6300.00000 0 12945792.170 8631376.746 20247480.430 10 0 60631 7200.00000 0 13835851.296 10845280.990 18518121.110 10 0 60631 8100.00000 0 14789464.202 12774383.913 16430177.349 10 0 60631 9000.00000 0 15752486.654 14384709.926 14023984.417 10 0 60631 9900.00000 0 16666937.018 15654428.579 11346053.901 10 0 60631 10800.00000 0 17473512.759 16574527.783 8448188.161 10 0 60631 11700.00000 0 18114183.668 17148961.087 5386490.501 10 0 60631 12600.00000 0 18534753.327 17394262.683 2220289.049 10 0 60631 13500.00000 0 18687281.029 17338645.909 -989005.806 10 0 60631 14400.00000 0 18532261.560 17020622.620 -4179088.837 10 0 60631 15300.00000 0 18040469.863 16487200.987 -7287969.395 10 0 60631 16200.00000 0 17194391.160 15791737.300 -10255179.189 10 0 60631 17100.00000 0 15989174.232 14991532.241 -13022954.461 10 0 60631 18000.00000 0 14433065.391 14145273.210 -15537368.824 10 0 60631 18900.00000 0 12547302.534 13310431.198 -17749393.818 10 0 60631 19800.00000 0 10365471.430 12540722.831 -19615865.593 10 0 60631 20700.00000 0 7932349.234 11883745.791 -21100337.878 10 0 60631 21600.00000 0 5302282.063 11378888.505 -22173803.729 10 0 60631 22500.00000 0 2537163.232 11055603.511 -22815271.198 10 0 60631 23400.00000 0 -295904.040 10932118.396 -23012180.978 10 0 60631 24300.00000 0 -3127162.298 11014639.623 -22760657.388 10 0 60631 25200.00000 0 -5886867.272 11297083.437 -22065587.372 10 0 60631 26100.00000 0 -8507955.624 11761345.568 -20940525.764 10 0 60631 27000.00000 0 -10928601.516 12378098.328 -19407428.571 10 0 60631 27900.00000 0 -13094555.192 13108081.104 -17496219.584 10 0 60631 28800.00000 0 -14961165.952 13903829.116 -15244199.066 10 0 60631 29700.00000 0 -16495005.395 14711766.496 -12695306.550 10 0 60631 30600.00000 0 -17675023.818 15474574.148 -9899252.831 10 0 60631 31500.00000 0 -18493192.558 16133731.133 -6910538.975 10 0 60631 32400.00000 0 -18954607.063 16632121.017 -3787382.525 10 0 60631 33300.00000 0 -19077048.372 16916591.974 -590572.935 10 0 60631 34200.00000 0 -18890023.762 16940361.695 2617720.329 10 0 60631 35100.00000 0 -18433329.289 16665165.054 5775162.829 10 0 60631 36000.00000 0 -17755196.994 16063053.719 8820468.936 10 0 60631 36900.00000 0 -16910106.792 15117772.028 11694590.298 10 0 60631 37800.00000 0 -15956356.716 13825651.582 14341855.854 10 0 60631 38700.00000 0 -14953494.737 12195987.478 16711041.711 10 0 60631 39600.00000 0 -13959720.554 10250880.915 18756350.902 10 0 60631 40500.00000 0 -13029366.291 8024555.076 20438285.266 10 0 60631 41400.00000 0 -12210561.075 5562172.930 21724394.014 10 0 60631 42300.00000 0 -11543176.275 2918205.894 22589886.070 10 0 60631 43200.00000 0 -11057136.108 154420.442 23018095.895 10 0 60631 44100.00000 0 -10771162.917 -2662434.931 23000795.160 10 0 60631 45000.00000 0 -10692008.372 -5463148.015 22538345.288 10 0 60631 45900.00000 0 -10814201.838 -8178663.978 21639688.533 10 0 60631 46800.00000 0 -11120325.921 -10742702.672 20322177.902 10 0 60631 47700.00000 0 -11581807.687 -13094265.689 18611248.868 10 0 60631 48600.00000 0 -12160192.853 -15179931.074 16539938.381 10 0 60631 49500.00000 0 -12808850.393 -16955842.026 14148259.341 10 0 60631 50400.00000 0 -13475037.118 -18389308.036 11482441.203 10 0 60631 51300.00000 0 -14102236.655 -19459952.558 8594049.933 10 0 60631 52200.00000 0 -14632675.472 -20160359.572 5539002.866 10 0 60631 53100.00000 0 -15009910.736 -20496191.878 2376496.336 10 0 60631 54000.00000 0 -15181381.217 -20485775.739 -832134.129 10 0 60631 54900.00000 0 -15100813.379 -20159168.654 -4024599.562 10 0 60631 55800.00000 0 -14730380.269 -19556748.754 -7138866.424 10 0 60631 56700.00000 0 -14042520.704 -18727384.600 -10114364.981 10 0 60631 57600.00000 0 -13021340.081 -17726262.013 -12893173.240 10 0 60631 58500.00000 0 -11663531.540 -16612459.429 -15421152.661 10 0 60631 59400.00000 0 -9978776.222 -15446374.159 -17649012.693 10 0 60631 60300.00000 0 -7989603.318 -14287108.520 -19533282.442 10 0 60631 61200.00000 0 -5730713.517 -13189926.785 -21037169.562 10 0 60631 62100.00000 0 -3247792.171 -12203891.013 -22131288.765 10 0 60631 63000.00000 0 -595860.293 -11369776.318 -22794244.913 10 0 60631 63900.00000 0 2162768.819 -10718354.332 -23013058.672 10 0 60631 64800.00000 0 4960842.663 -10269117.892 -22783425.846 10 0 60631 65700.00000 0 7728734.418 -10029501.189 -22109804.962 10 0 60631 66600.00000 0 10397112.553 -9994628.409 -21005331.103 10 0 60631 67500.00000 0 12899603.581 -10147601.302 -19491557.597 10 0 60631 68400.00000 0 15175336.567 -10460313.030 -17598030.656 10 0 60631 69300.00000 0 17171262.938 -10894753.068 -15361705.561 10 0 60631 70200.00000 0 18844154.702 -11404746.949 -12826216.275 10 0 60631 71100.00000 0 20162197.902 -11938055.973 -10041013.399 10 0 60631 72000.00000 0 21106115.353 -12438746.677 -7060388.214 10 0 60631 72900.00000 0 21669772.857 -12849728.429 -3942402.887 10 0 60631 73800.00000 0 21860245.149 -13115350.474 -747748.773 10 0 60631 74700.00000 0 21697340.759 -13183947.523 2461443.750 10 0 60631 75600.00000 0 21212607.989 -13010225.442 5622819.786 10 0 60631 76500.00000 0 20447866.008 -12557385.821 8675014.333 10 0 60631 77400.00000 0 19453324.901 -11798899.644 11558842.541 10 0 60631 78300.00000 0 18285375.443 -10719855.467 14218442.599 10 0 60631 79200.00000 0 17004142.705 -9317825.737 16602349.516 10 0 60631 80100.00000 0 15670906.890 -7603215.294 18664479.700 10 0 60631 81000.00000 0 14345499.631 -5599077.767 20365008.472 10 0 60631 81900.00000 0 13083784.276 -3340407.632 21671124.971 10 0 60631 82800.00000 0 11935324.642 -872937.270 22557651.402 10 0 60631 83700.00000 0 10941338.289 1748511.552 23007516.216 10 0 60631 84600.00000 0 10133018.275 4462054.317 23012073.461 10 0 60631 85500.00000 0 9530291.952 7201065.818 22571263.190 10 0 60632 0.00000 0 9141067.279 9896702.905 21693610.571 10 0 60632 900.00000 0 8960996.948 12480526.737 20396063.317 10 0 60632 1800.00000 0 8973770.075 14887114.241 18703671.521 10 0 60632 2700.00000 0 9151918.440 17056557.148 16649113.713 10 0 60632 3600.00000 0 9458104.423 18936742.904 14272078.233 10 0 60632 4500.00000 0 9846837.010 20485325.289 11618510.082 10 0 60632 5400.00000 0 10266544.748 21671303.274 8739736.408 10 0 60632 6300.00000 0 10661919.352 22476142.577 5691486.076 10 0 60632 7200.00000 0 10976431.983 22894392.903 2532821.083 10 0 60632 8100.00000 0 11154916.537 22933774.546 -675000.447 10 0 60632 9000.00000 0 11146110.883 22614729.958 -3869708.299 10 0 60632 9900.00000 0 10905048.161 21969458.235 -6989228.421 10 0 60632 10800.00000 0 10395196.014 21040472.250 -9972891.853 10 0 60632 11700.00000 0 9590251.776 19878738.418 -12762620.367 10 0 60632 12600.00000 0 8475515.750 18541476.937 -15304065.046 10 0 60632 13500.00000 0 7048782.321 17089714.936 -17547674.778 10 0 60632 14400.00000 0 5320708.846 15585695.698 -19449672.926 10 0 60632 15300.00000 0 3314644.353 14090253.459 -20972922.167 10 0 60632 16200.00000 0 1065922.985 12660264.887 -22087659.746 10 0 60632 17100.00000 0 -1379350.148 11346285.195 -22772088.013 10 0 60632 18000.00000 0 -3965971.343 10190469.096 -23012808.030 10 0 60632 18900.00000 0 -6631700.006 9224864.614 -22805087.226 10 0 60632 19800.00000 0 -9309624.145 8470151.942 -22152955.492 10 0 60632 20700.00000 0 -11930731.001 7934880.481 -21069127.552 10 0 60632 21600.00000 0 -14426575.373 7615235.899 -19574753.023 10 0 60632 22500.00000 0 -16731933.919 7495346.378 -17698999.119 10 0 60632 23400.00000 0 -18787334.170 7548114.123 -15478474.384 10 0 60632 24300.00000 0 -20541352.325 7736535.731 -12956505.187 10 0 60632 25200.00000 0 -21952583.686 8015454.083 -10182279.750 10 0 60632 26100.00000 0 -22991203.554 8333666.045 -7209877.303 10 0 60632 27000.00000 0 -23640053.956 8636295.091 -4097202.336 10 0 60632 27900.00000 0 -23895211.791 8867326.860 -904845.825 10 0 60632 28800.00000 0 -23766016.125 8972198.939 2305103.216 10 0 60632 29700.00000 0 -23274555.401 8900334.186 5470271.693 10 0 60632 30600.00000 0 -22454638.107 8607509.743 8529217.508 10 0 60632 31500.00000 0 -21350292.172 8057961.244 11422621.589 10 0 60632 32400.00000 0 -20013857.901 7226133.458 14094433.652 10 0 60632 33300.00000 0 -18503755.885 6098003.760 16492949.834 10 0 60632 34200.00000 0 -16882024.391 4671923.219 18571802.046 10 0 60632 35100.00000 0 -15211729.675 2958940.289 20290841.052 10 0 60632 36000.00000 0 -13554357.227 982593.764 21616897.644 10 0 60632 36900.00000 0 -11967292.112 -1221816.423 22524408.734 10 0 60632 37800.00000 0 -10501492.263 -3608450.657 22995897.837 10 0 60632 38700.00000 0 -9199450.109 -6122593.387 23022302.079 10 0 60632 39600.00000 0 -8093525.831 -8702691.296 22603140.439 10 0 60632 40500.00000 0 -7204720.013 -11282682.937 21746520.692 10 0 60632 41400.00000 0 -6541935.434 -13794525.056 20468985.056 10 0 60632 42300.00000 0 -6101757.734 -16170812.720 18795197.202 10 0 60632 43200.00000 0 -5868763.466 -18347386.436 16757475.946 10 0 60632 44100.00000 0 -5816342.493 -20265819.649 14395183.411 10 0 60632 45000.00000 0 -5908000.469 -21875684.464 11753978.187 10 0 60632 45900.00000 0 -6099087.303 -23136502.147 8884946.391 10 0 60632 46800.00000 0 -6338879.632 -24019297.392 5843626.007 10 0 60632 47700.00000 0 -6572930.272 -24507691.309 2688942.136 10 0 60632 48600.00000 0 -6745586.086 -24598486.838 -517927.179 10 0 60632 49500.00000 0 -6802568.130 -24301721.175 -3714733.235 10 0 60632 50400.00000 0 -6693504.746 -23640181.928 -6839364.311 10 0 60632 51300.00000 0 -6374309.745 -22648406.222 -9831055.118 10 0 60632 52200.00000 0 -5809303.812 -21371203.772 -12631574.119 10 0 60632 53100.00000 0 -4972987.703 -19861765.230 -15186364.905 10 0 60632 54000.00000 0 -3851390.207 -18179434.802 -17445618.578 10 0 60632 54900.00000 0 -2442931.622 -16387240.601 -19365255.323 10 0 60632 55800.00000 0 -758763.929 -14549286.646 -20907795.072 10 0 60632 56700.00000 0 1177429.032 -12728116.464 -22043099.422 10 0 60632 57600.00000 0 3330165.137 -10982159.539 -22748969.534 10 0 60632 58500.00000 0 5653402.273 -9363368.445 -23011587.655 10 0 60632 59400.00000 0 8092230.861 -7915146.367 -22825793.089 10 0 60632 60300.00000 0 10584950.628 -6670652.353 -22195186.830 10 0 60632 61200.00000 0 13065445.186 -5651555.560 -21132062.487 10 0 60632 62100.00000 0 15465755.158 -4867290.512 -19657164.780 10 0 60632 63000.00000 0 17718742.023 -4314844.035 -17799280.306 10 0 60632 63900.00000 0 19760730.828 -3979081.725 -15594668.849 10 0 60632 64800.00000 0 21534020.752 -3833598.786 -13086346.769 10 0 60632 65700.00000 0 22989158.102 -3842057.601 -10323237.119 10 0 60632 66600.00000 0 24086876.435 -3959953.643 -7359203.957 10 0 60632 67500.00000 0 24799622.765 -4136733.106 -4251990.715 10 0 60632 68400.00000 0 25112606.534 -4318170.769 -1062084.446 10 0 60632 69300.00000 0 25024328.439 -4448905.730 2148470.776 10 0 60632 70200.00000 0 24546568.394 -4475026.296 5317287.146 10 0 60632 71100.00000 0 23703834.869 -4346593.596 8382848.736 10 0 60632 72000.00000 0 22532300.526 -4019996.594 11285705.209 10 0 60632 72900.00000 0 21078270.561 -3460038.816 13969620.379 10 0 60632 73800.00000 0 19396249.415 -2641668.840 16382653.672 10 0 60632 74700.00000 0 17546687.889 -1551282.035 18478154.227 10 0 60632 75600.00000 0 15593505.379 -187539.236 20215649.567 10 0 60632 76500.00000 0 13601490.672 1438331.686 21561613.047 10 0 60632 77400.00000 0 11633689.072 3302763.842 22490096.808 10 0 60632 78300.00000 0 9748883.566 5370599.642 22983219.581 10 0 60632 79200.00000 0 7999273.314 7596328.896 23031501.314 10 0 60632 80100.00000 0 6428444.268 9925766.167 22634039.282 10 0 60632 81000.00000 0 5069714.525 12298099.108 21798522.933 10 0 60632 81900.00000 0 3944921.473 14648224.423 20541087.417 10 0 60632 82800.00000 0 3063699.875 16909276.275 18886008.285 10 0 60632 83700.00000 0 2423279.847 19015243.992 16865242.557 10 0 60632 84600.00000 0 2008812.565 20903571.981 14517823.813 10 0 60632 85500.00000 0 1794209.878 22517634.998 11889121.691 10 0 60633 0.00000 0 1743462.802 23808986.529 9029978.852 10 0 60633 900.00000 0 1812383.951 24739287.543 5995739.079 10 0 60633 1800.00000 0 1950701.179 25281833.267 2845187.963 10 0 60633 2700.00000 0 2104414.576 25422615.839 -360579.397 10 0 60633 3600.00000 0 2218317.739 25160875.545 -3559338.623 10 0 60633 4500.00000 0 2238576.623 24509117.024 -6688943.006 10 0 60633 5400.00000 0 2115256.473 23492588.276 -9688533.421 10 0 60633 6300.00000 0 1804688.955 22148242.998 -12499727.274 10 0 60633 7200.00000 0 1271577.944 20523228.672 -15067762.647 10 0 60633 8100.00000 0 490753.092 18672962.998 -17342574.553 10 0 60633 9000.00000 0 -551505.022 16658878.842 -19279781.411 10 0 60633 9900.00000 0 -1856626.387 14545932.140 -20841561.558 10 0 60633 10800.00000 0 -3413437.335 12399977.361 -21997401.835 10 0 60633 11700.00000 0 -5198386.032 10285120.879 -22724702.837 10 0 60633 12600.00000 0 -7176300.093 8261163.647 -23009228.326 10 0 60633 13500.00000 0 -9301646.067 6381240.775 -22845389.477 10 0 60633 14400.00000 0 -11520239.089 4689757.229 -22236357.985 10 0 60633 15300.00000 0 -13771331.664 3220706.306 -21194005.539 10 0 60633 16200.00000 0 -15989994.317 1996441.152 -19738670.700 10 0 60633 17100.00000 0 -18109688.253 1026950.242 -17898757.777 10 0 60633 18000.00000 0 -20064921.826 309666.260 -15710175.760 10 0 60633 18900.00000 0 -21793878.952 -170185.071 -13215628.696 10 0 60633 19800.00000 0 -23240908.786 -438712.647 -10463771.975 10 0 60633 20700.00000 0 -24358771.785 -532002.979 -7508251.894 10 0 60633 21600.00000 0 -25110547.823 -494337.998 -4406648.224 10 0 60633 22500.00000 0 -25471126.466 -376065.162 -1219341.507 10 0 60633 23400.00000 0 -25428217.479 -231211.967 1991671.663 10 0 60633 24300.00000 0 -24982840.132 -114947.546 5163991.270 10 0 60633 25200.00000 0 -24149272.120 -81000.139 8236029.994 10 0 60633 26100.00000 0 -22954461.758 -179140.548 11148208.611 10 0 60633 27000.00000 0 -21436929.688 -452838.429 13844107.316 10 0 60633 27900.00000 0 -19645207.495 -937190.384 16271550.964 10 0 60633 28800.00000 0 -17635879.706 -1657206.897 18383607.883 10 0 60633 29700.00000 0 -15471311.621 -2626529.767 20139484.048 10 0 60633 30600.00000 0 -13217157.873 -3846633.389 21505296.772 10 0 60633 31500.00000 0 -10939755.069 -5306543.034 22454714.467 10 0 60633 32400.00000 0 -8703505.999 -6983081.832 22969451.736 10 0 60633 33300.00000 0 -6568362.643 -8841636.466 23039611.643 10 0 60633 34200.00000 0 -4587510.803 -10837410.388 22663869.667 10 0 60633 35100.00000 0 -2805350.565 -12917113.515 21849496.488 10 0 60633 36000.00000 0 -1255854.563 -15021019.622 20612219.406 10 0 60633 36900.00000 0 38629.385 -17085307.550 18975924.759 10 0 60633 37800.00000 0 1068082.868 -19044590.647 16972206.362 10 0 60633 38700.00000 0 1835000.302 -20834530.893 14639767.558 10 0 60633 39600.00000 0 2354044.105 -22394430.220 12023687.074 10 0 60633 40500.00000 0 2651186.167 -23669692.059 9174561.391 10 0 60633 41400.00000 0 2762371.511 -24614050.855 6147538.746 10 0 60633 42300.00000 0 2731759.854 -25191476.356 3001262.214 10 0 60633 43200.00000 0 2609618.735 -25377672.430 -203258.658 10 0 60633 44100.00000 0 2449956.700 -25161106.584 -3403826.476 10 0 60633 45000.00000 0 2307996.404 -24543525.644 -6538262.236 10 0 60633 45900.00000 0 2237594.731 -23539934.388 -9545615.685 10 0 60633 46800.00000 0 2288719.677 -22178036.363 -12367355.859 10 0 60633 47700.00000 0 2505091.880 -20497158.869 -14948517.968 10 0 60633 48600.00000 0 2922092.018 -18546705.886 -17238783.447 10 0 60633 49500.00000 0 3565024.378 -16384202.876 -19193471.272 10 0 60633 50400.00000 0 4447811.981 -14073014.793 -20774420.228 10 0 60633 51300.00000 0 5572180.441 -11679832.656 -21950744.071 10 0 60633 52200.00000 0 6927367.068 -9272033.927 -22699444.079 10 0 60633 53100.00000 0 8490369.327 -6915027.432 -23005866.307 10 0 60633 54000.00000 0 10226723.823 -4669694.226 -22863994.099 10 0 60633 54900.00000 0 12091784.296 -2590031.760 -22276569.693 10 0 60633 55800.00000 0 14032445.752 -721100.080 -21255042.242 10 0 60633 56700.00000 0 15989242.700 902644.082 -19819343.128 10 0 60633 57600.00000 0 17898733.398 2258556.036 -17997492.950 10 0 60633 58500.00000 0 19696069.674 3336504.861 -15825048.098 10 0 60633 59400.00000 0 21317643.820 4139039.978 -13344398.106 10 0 60633 60300.00000 0 22703700.767 4681017.321 -10603928.147 10 0 60633 61200.00000 0 23800805.139 4988702.858 -7657063.874 10 0 60633 62100.00000 0 24564059.075 5098393.543 -4561218.237 10 0 60633 63000.00000 0 24958977.438 5054616.274 -1376661.935 10 0 60633 63900.00000 0 24962941.776 4907983.195 1834659.316 10 0 60633 64800.00000 0 24566172.514 4712796.099 5010336.624 10 0 60633 65700.00000 0 23772179.440 4524502.912 8088714.456 10 0 60633 66600.00000 0 22597672.767 4397115.051 11010087.610 10 0 60633 67500.00000 0 21071939.779 4380695.539 13717855.256 10 0 60633 68400.00000 0 19235714.460 4519024.180 16159609.925 10 0 60633 69300.00000 0 17139588.410 4847538.084 18288141.004 10 0 60633 70200.00000 0 14842030.137 5391633.774 20062334.453 10 0 60633 71100.00000 0 12407095.505 6165401.626 21447952.719 10 0 60633 72000.00000 0 9901924.362 7170845.143 22418281.320 10 0 60633 72900.00000 0 7394126.546 8397617.349 22954631.223 10 0 60633 73800.00000 0 4949164.445 9823285.234 23046688.716 10 0 60633 74700.00000 0 2627839.035 11414111.546 22692707.195 10 0 60633 75600.00000 0 483981.710 13126322.054 21899537.864 10 0 60633 76500.00000 0 -1437554.384 14907806.665 20682499.032 10 0 60633 77400.00000 0 -3102521.971 16700184.986 19065086.251 10 0 60633 78300.00000 0 -4488460.264 18441151.925 17078528.181 10 0 60633 79200.00000 0 -5585380.691 20067007.240 14761195.645 10 0 60633 80100.00000 0 -6395930.006 21515264.983 12157873.918 10 0 60633 81000.00000 0 -6935024.353 22727235.063 9318910.832 10 0 60633 81900.00000 0 -7228969.707 23650469.708 6299255.706 10 0 60633 82800.00000 0 -7314105.313 24240972.558 3157406.422 10 0 60633 83700.00000 0 -7235026.860 24465077.466 -45715.959 10 0 60633 84600.00000 0 -7042463.839 24300917.214 -3247943.925 10 0 60633 85500.00000 0 -6790900.449 23739419.142 -6387068.980 99